Location: TAAA CAC
(31.8680°N, 109.5150°W)
Time: 20:31:53
(UTC-07:00)

BlueWalker 3 - Pass Details

Date: 20 March 2026
Orbit: 449 x 457 km, 53.2° (Epoch: 20 April)

Event Time Altitude Azimuth Distance (km) Brightness Sun altitude
Exits shadow 04:46:41 52° 170° (S) 567 2.1 -20.8°
Drops below altitude 10° 04:49:32 10° 146° (SE) 1,579 4.7 -20.2°
Sets 04:51:40 0° 143° (SE) 2,447 5.8 -19.8°
